Retour au catalogue

CZ-6A DEB

ActifPO
NORAD 61267·DEBRIS·🇨🇳 China

Lancé Aug 6, 2024 depuis Taiyuan Satellite Launch Center

Loading…

Prochains Passages (prochaines 24 heures)

TLE

FraisSource: Space-Track

Époque: Sep 14, 2026, 11:29 UTC

1 61267U 24140SC  26257.47870543  .00001018  00000-0  42668-3 0  9992
2 61267  89.1460 277.7589 0048705 287.0313  72.5546 14.24713657106573

Suivez CZ-6A DEB en temps réel avec AllMySat

Download on the App Store